| time (UTC) | temp C | wind direction | speed KPH | gust KPH | rain 1hr cm | rain 24hr cm | rain mn cm | humidity % | barometer mb |
| 20260906211551 | 28 | 146 | 1.6 | 14.5 | 0.00 | 0.00 | 0.00 | 38 | 1025.8 |
| 20260906210112 | 27 | 99 | 4.8 | 17.7 | 0.00 | 0.00 | 0.00 | 40 | 1025.9 |
| 20260906204556 | 27 | 112 | 4.8 | 19.3 | 0.00 | 0.00 | 0.00 | 38 | 1026.1 |
| 20260906203053 | 27 | 81 | 4.8 | 17.7 | 0.00 | 0.00 | 0.00 | 42 | 1026.3 |
| 20260906201628 | 27 | 56 | 0.0 | 14.5 | 0.00 | 0.00 | 0.00 | 43 | 1026.3 |
| 20260906200053 | 26 | 57 | 1.6 | 17.7 | 0.00 | 0.00 | 0.00 | 41 | 1026.3 |
| 20260906194603 | 26 | 46 | 1.6 | 16.1 | 0.00 | 0.00 | 0.00 | 41 | 1026.4 |
| 20260906193053 | 26 | 48 | 4.8 | 16.1 | 0.00 | 0.00 | 0.00 | 40 | 1026.4 |
| 20260906191606 | 26 | 55 | 4.8 | 16.1 | 0.00 | 0.00 | 0.00 | 38 | 1026.8 |
| 20260906190054 | 26 | 62 | 3.2 | 11.3 | 0.00 | 0.00 | 0.00 | 38 | 1026.9 |
| 20260906184554 | 27 | 126 | 1.6 | 11.3 | 0.00 | 0.00 | 0.00 | 37 | 1027.4 |
| 20260906183100 | 26 | 84 | 1.6 | 8.0 | 0.00 | 0.00 | 0.00 | 41 | 1027.7 |
| 20260906181624 | 26 | 63 | 3.2 | 8.0 | 0.00 | 0.00 | 0.00 | 39 | 1027.9 |
| 20260906180055 | 26 | 226 | 3.2 | 11.3 | 0.00 | 0.00 | 0.00 | 39 | 1028.1 |
| 20260906174554 | 25 | 0 | 1.6 | 9.7 | 0.00 | 0.00 | 0.00 | 42 | 1028.3 |
| 20260906173103 | 25 | 60 | 3.2 | 9.7 | 0.00 | 0.00 | 0.00 | 39 | 1028.3 |
| 20260906171553 | 25 | 0 | 0.0 | 11.3 | 0.00 | 0.00 | 0.00 | 42 | 1028.4 |
| 20260906170053 | 25 | 0 | 3.2 | 8.0 | 0.00 | 0.00 | 0.00 | 43 | 1028.5 |
| 20260906164558 | 25 | 225 | 1.6 | 8.0 | 0.00 | 0.00 | 0.00 | 41 | 1028.5 |
| 20260906163105 | 24 | 0 | 0.0 | 9.7 | 0.00 | 0.00 | 0.00 | 44 | 1028.6 |
| 20260906161611 | 23 | 101 | 0.0 | 8.0 | 0.00 | 0.00 | 0.00 | 43 | 1028.5 |
| 20260906160053 | 23 | 30 | 1.6 | 6.4 | 0.00 | 0.00 | 0.00 | 41 | 1028.6 |
| 20260906154559 | 23 | 47 | 1.6 | 6.4 | 0.00 | 0.00 | 0.00 | 42 | 1028.5 |
| 20260906153053 | 22 | 39 | 1.6 | 4.8 | 0.00 | 0.00 | 0.00 | 42 | 1028.4 |
| 20260906151554 | 22 | 38 | 1.6 | 8.0 | 0.00 | 0.00 | 0.00 | 45 | 1028.3 |
| 20260906150059 | 21 | 27 | 3.2 | 6.4 | 0.00 | 0.00 | 0.00 | 46 | 1028.4 |
| 20260906144557 | 20 | 52 | 1.6 | 6.4 | 0.00 | 0.00 | 0.00 | 49 | 1028.1 |
| 20260906143055 | 20 | 18 | 0.0 | 4.8 | 0.00 | 0.00 | 0.00 | 51 | 1028.1 |
| 20260906141601 | 18 | 0 | 0.0 | 1.6 | 0.00 | 0.00 | 0.00 | 55 | 1028.0 |
| 20260906140104 | 17 | 0 | 0.0 | 3.2 | 0.00 | 0.00 | 0.00 | 59 | 1028.0 |
| 20260906134604 | 16 | 17 | 0.0 | 3.2 | 0.00 | 0.00 | 0.00 | 59 | 1028.0 |
| 20260906133057 | 16 | 37 | 0.0 | 3.2 | 0.00 | 0.00 | 0.00 | 60 | 1027.9 |
| 20260906131558 | 15 | 25 | 0.0 | 4.8 | 0.00 | 0.00 | 0.00 | 61 | 1027.7 |
| 20260906130109 | 15 | 17 | 0.0 | 1.6 | 0.00 | 0.00 | 0.00 | 61 | 1027.6 |
| 20260906124555 | 15 | 37 | 0.0 | 3.2 | 0.00 | 0.00 | 0.00 | 60 | 1027.5 |
| 20260906123053 | 15 | 8 | 0.0 | 1.6 | 0.00 | 0.00 | 0.00 | 59 | 1027.6 |
| 20260906121607 | 16 | 16 | 0.0 | 4.8 | 0.00 | 0.00 | 0.00 | 58 | 1027.6 |
| 20260906120056 | 16 | 8 | 0.0 | 4.8 | 0.00 | 0.00 | 0.00 | 57 | 1027.4 |
| 20260906114609 | 16 | 22 | 0.0 | 4.8 | 0.00 | 0.00 | 0.00 | 58 | 1027.1 |
| 20260906113113 | 15 | 22 | 0.0 | 3.2 | 0.00 | 0.00 | 0.00 | 58 | 1027.2 |
| 20260906111606 | 15 | 0 | 0.0 | 1.6 | 0.00 | 0.00 | 0.00 | 60 | 1027.0 |
| 20260906104559 | 14 | 0 | 0.0 | 1.6 | 0.00 | 0.00 | 0.00 | 64 | 1027.1 |
| 20260906103053 | 15 | 23 | 0.0 | 1.6 | 0.00 | 0.00 | 0.00 | 63 | 1027.2 |
| 20260906101556 | 15 | 0 | 0.0 | 1.6 | 0.00 | 0.00 | 0.00 | 62 | 1027.2 |
| 20260906100051 | 15 | 0 | 0.0 | 1.6 | 0.00 | 0.00 | 0.00 | 61 | 1027.3 |
| 20260906094553 | 16 | 0 | 0.0 | 1.6 | 0.00 | 0.00 | 0.00 | 61 | 1027.6 |
| 20260906093057 | 16 | 23 | 0.0 | 1.6 | 0.00 | 0.00 | 0.00 | 63 | 1027.4 |
| 20260906091555 | 16 | 0 | 0.0 | 1.6 | 0.00 | 0.00 | 0.00 | 64 | 1027.4 |
| 20260906090054 | 16 | 0 | 0.0 | 1.6 | 0.00 | 0.00 | 0.00 | 65 | 1027.2 |
| 20260906084550 | 16 | 0 | 0.0 | 1.6 | 0.00 | 0.00 | 0.00 | 67 | 1027.2 |
| 20260906083054 | 16 | 0 | 0.0 | 1.6 | 0.00 | 0.00 | 0.00 | 67 | 1027.4 |
| 20260906081556 | 17 | 0 | 0.0 | 4.8 | 0.00 | 0.00 | 0.00 | 69 | 1027.3 |
| 20260906080055 | 16 | 0 | 0.0 | 0.0 | 0.00 | 0.00 | 0.00 | 75 | 1027.4 |
| 20260906074553 | 16 | 0 | 0.0 | 0.0 | 0.00 | 0.00 | 0.00 | 74 | 1027.4 |
| 20260906073058 | 16 | 0 | 0.0 | 1.6 | 0.00 | 0.00 | 0.00 | 73 | 1027.7 |
| 20260906071559 | 16 | 0 | 0.0 | 0.0 | 0.00 | 0.00 | 0.00 | 74 | 1027.6 |
| 20260906070059 | 16 | 0 | 0.0 | 3.2 | 0.00 | 0.00 | 0.00 | 73 | 1027.8 |
| 20260906064555 | 16 | 0 | 0.0 | 0.0 | 0.00 | 0.00 | 0.00 | 73 | 1027.9 |
| 20260906063055 | 16 | 0 | 1.6 | 6.4 | 0.00 | 0.00 | 0.00 | 73 | 1027.9 |
| 20260906061553 | 16 | 0 | 0.0 | 1.6 | 0.00 | 0.00 | 0.00 | 73 | 1027.7 |
| 20260906060122 | 16 | 0 | 0.0 | 1.6 | 0.00 | 0.00 | 0.00 | 74 | 1027.6 |
| 20260906054554 | 16 | 90 | 0.0 | 1.6 | 0.00 | 0.00 | 0.00 | 74 | 1027.6 |
| 20260906053051 | 16 | 0 | 0.0 | 0.0 | 0.00 | 0.00 | 0.00 | 75 | 1027.6 |
| 20260906051557 | 16 | 0 | 0.0 | 0.0 | 0.00 | 0.00 | 0.00 | 74 | 1027.7 |
| 20260906050112 | 16 | 0 | 0.0 | 0.0 | 0.00 | 0.00 | 0.00 | 75 | 1027.8 |
| 20260906044552 | 16 | 0 | 0.0 | 0.0 | 0.00 | 0.00 | 0.00 | 74 | 1027.8 |
| 20260906043100 | 16 | 0 | 0.0 | 0.0 | 0.00 | 0.00 | 0.00 | 74 | 1027.9 |
| 20260906041554 | 17 | 0 | 0.0 | 1.6 | 0.00 | 0.00 | 0.00 | 73 | 1028.1 |
| 20260906040055 | 17 | 0 | 0.0 | 0.0 | 0.00 | 0.00 | 0.00 | 72 | 1028.0 |
| 20260906034558 | 18 | 0 | 0.0 | 1.6 | 0.00 | 0.00 | 0.00 | 71 | 1028.0 |
| 20260906033056 | 18 | 38 | 0.0 | 6.4 | 0.00 | 0.00 | 0.00 | 71 | 1028.0 |
| 20260906031627 | 18 | 99 | 0.0 | 6.4 | 0.00 | 0.00 | 0.00 | 70 | 1027.9 |
| 20260906030053 | 19 | 93 | 0.0 | 6.4 | 0.00 | 0.00 | 0.00 | 68 | 1027.7 |
| 20260906024603 | 19 | 0 | 3.2 | 9.7 | 0.00 | 0.00 | 0.00 | 68 | 1027.4 |
| 20260906023107 | 20 | 133 | 0.0 | 9.7 | 0.00 | 0.00 | 0.00 | 66 | 1027.4 |
| 20260906021551 | 20 | 105 | 1.6 | 11.3 | 0.00 | 0.00 | 0.00 | 64 | 1027.3 |
| 20260906020056 | 20 | 58 | 1.6 | 4.8 | 0.00 | 0.00 | 0.00 | 42 | 1027.0 |
| 20260906014554 | 20 | 25 | 0.0 | 1.6 | 0.00 | 0.00 | 0.00 | 41 | 1026.6 |
| 20260906013053 | 21 | 351 | 0.0 | 1.6 | 0.00 | 0.00 | 0.00 | 41 | 1026.6 |
| 20260906011558 | 21 | 0 | 0.0 | 0.0 | 0.00 | 0.00 | 0.00 | 39 | 1026.7 |
| 20260906010051 | 22 | 0 | 0.0 | 1.6 | 0.00 | 0.00 | 0.00 | 37 | 1026.9 |
| 20260906004600 | 23 | 302 | 0.0 | 4.8 | 0.00 | 0.00 | 0.00 | 36 | 1027.0 |
| 20260906003055 | 23 | 316 | 0.0 | 1.6 | 0.00 | 0.00 | 0.00 | 36 | 1027.1 |
| 20260906001554 | 24 | 0 | 0.0 | 1.6 | 0.00 | 0.00 | 0.00 | 35 | 1026.8 |
| 20260906000108 | 25 | 64 | 0.0 | 3.2 | 0.00 | 0.00 | 0.00 | 33 | 1026.8 |
| 20260905234558 | 25 | 111 | 0.0 | 1.6 | 0.00 | 0.00 | 0.00 | 32 | 1026.7 |
| 20260905233101 | 25 | 0 | 0.0 | 3.2 | 0.00 | 0.00 | 0.00 | 31 | 1026.6 |
| 20260905231608 | 25 | 341 | 0.0 | 1.6 | 0.00 | 0.00 | 0.00 | 32 | 1026.5 |
| 20260905230053 | 26 | 344 | 0.0 | 4.8 | 0.00 | 0.00 | 0.00 | 32 | 1026.6 |
| 20260905224553 | 25 | 8 | 0.0 | 3.2 | 0.00 | 0.00 | 0.00 | 32 | 1026.6 |
| 20260905223054 | 25 | 270 | 0.0 | 3.2 | 0.00 | 0.00 | 0.00 | 34 | 1026.9 |
| 20260905221603 | 25 | 265 | 1.6 | 6.4 | 0.00 | 0.00 | 0.00 | 31 | 1026.8 |
| 20260905220100 | 24 | 360 | 1.6 | 4.8 | 0.00 | 0.00 | 0.00 | 34 | 1026.7 |
| 20260905214604 | 23 | 0 | 0.0 | 4.8 | 0.00 | 0.00 | 0.00 | 35 | 1026.9 |
| 20260905213053 | 24 | 84 | 4.8 | 14.5 | 0.00 | 0.00 | 0.00 | 38 | 1027.3 |